Tracking 27420 objects as of 28-May-2023
HD Live streaming from Space Station
objects crossing your sky now

STARLINK-5862

Track STARLINK-5862 now!
10-day predictions
STARLINK-5862 is classified as:


NORAD ID: 55920
Int'l Code: 2023-037G
Perigee: 364.0 km
Apogee: 368.5 km
Inclination: 70.0 °
Period: 91.7 minutes
Semi major axis: 6737 km
RCS: Unknown
Launch date: March 17, 2023
Source: United States (US)
Launch site: AIR FORCE WESTERN TEST RANGE (AFWTR)
Your satellite tracking list
Your tracking list is empty




NASA's NSSDC Master Catalog

Two Line Element Set (TLE):
1 55920U 23037G   23147.95936130  .00000527  00000-0  61549-5 0  9993
2 55920  69.9969 340.9180 0003320 269.9622  90.1194 15.69922275 11363
Source of the keplerian elements: AFSPC